Location: Cold Norton
(51.6667°N, 0.6667°E)
Time: 06:56:40
(UTC+00:00)

Cosmos 2278 Rocket - Pass Details

Date: 18 November 2025
Orbit: 841 x 843 km, 71.0° (Epoch: 12 December)

Event Time Altitude Azimuth Distance (km) Brightness Sun altitude
Rises 19:20:41 0° 246° (WSW) 3,393 6.2 -30.2°
Reaches altitude 10° 19:23:26 10° 257° (WSW) 2,461 5.4 -30.7°
Maximum altitude 19:28:22 30° 317° (NW) 1,472 3.8 -31.4°
Enters shadow 19:30:29 24° 354° (N) 1,701 3.8 -31.7°
